�v������,,���ԉ��x,�����t���O,���Ԏ��x,�����t���O,��Q���i�QF�j���x,�����t���O,��K�Q��,�����t���O,����,�����t���O
2004/7/1,0:00:00,24.1,0,66,0,23.9,0,,0,16.1,0
2004/7/1,0:10:00,24.1,0,65.9,0,23.9,0,,0,16.1,0
2004/7/1,0:20:00,24,0,65.8,0,23.9,0,,0,16.2,0
2004/7/1,0:30:00,24,0,65.7,0,23.9,0,,0,16.2,0
2004/7/1,0:40:00,24,0,65.7,0,23.9,0,,0,16.3,0
2004/7/1,0:50:00,24,0,65.6,0,23.8,0,,0,16.3,0
2004/7/1,1:00:00,24,0,65.6,0,23.8,0,,0,16.4,0
2004/7/1,1:10:00,23.9,0,65.5,0,23.8,0,,0,16.4,0
2004/7/1,1:20:00,23.9,0,65.5,0,23.8,0,,0,16.5,0
2004/7/1,1:30:00,23.9,0,65.4,0,23.8,0,,0,16.5,0
2004/7/1,1:40:00,23.9,0,65.3,0,23.8,0,,0,16.6,0
2004/7/1,1:50:00,23.8,0,65.3,0,23.7,0,,0,16.6,0
2004/7/1,2:00:00,23.8,0,65.2,0,23.7,0,,0,16.7,0
2004/7/1,2:10:00,23.8,0,65.1,0,23.7,0,,0,16.7,0
2004/7/1,2:20:00,23.8,0,65.1,0,23.7,0,,0,16.8,0
2004/7/1,2:30:00,23.7,0,65,0,23.7,0,,0,16.8,0
2004/7/1,2:40:00,23.7,0,65,0,23.7,0,,0,16.9,0
2004/7/1,2:50:00,23.7,0,65,0,23.6,0,,0,16.9,0
2004/7/1,3:00:00,23.7,0,65,0,23.6,0,,0,17,0
2004/7/1,3:10:00,23.6,0,64.8,0,23.6,0,,0,17,0
2004/7/1,3:20:00,23.6,0,64.8,0,23.6,0,,0,17.1,0
2004/7/1,3:30:00,23.6,0,64.7,0,23.6,0,,0,17.1,0
2004/7/1,3:40:00,23.5,0,64.7,0,23.6,0,,0,17.2,0
2004/7/1,3:50:00,23.5,0,64.7,0,23.5,0,,0,17.2,0
2004/7/1,4:00:00,23.5,0,64.6,0,23.5,0,,0,17.3,0
2004/7/1,4:10:00,23.5,0,64.6,0,23.5,0,,0,17.3,0
2004/7/1,4:20:00,23.4,0,64.6,0,23.5,0,,0,17.4,0
2004/7/1,4:30:00,23.4,0,64.5,0,23.5,0,,0,17.4,0
2004/7/1,4:40:00,23.4,0,64.5,0,23.5,0,,0,17.4,0
2004/7/1,4:50:00,23.4,0,64.5,0,23.5,0,,0,17.5,0
2004/7/1,5:00:00,23.4,0,64.4,0,23.5,0,,0,17.5,0
2004/7/1,5:10:00,23.3,0,64.5,0,23.5,0,,0,17.6,0
2004/7/1,5:20:00,23.3,0,64.4,0,23.4,0,,0,17.6,0
2004/7/1,5:30:00,23.3,0,64.4,0,23.4,0,,0,17.7,0
2004/7/1,5:40:00,23.3,0,64.4,0,23.4,0,,0,17.7,0
2004/7/1,5:50:00,23.3,0,64.4,0,23.4,0,,0,17.7,0
2004/7/1,6:00:00,23.2,0,64.3,0,23.4,0,,0,17.8,0
2004/7/1,6:10:00,23.2,0,64.3,0,23.4,0,,0,17.8,0
2004/7/1,6:20:00,23.2,0,64.3,0,23.4,0,,0,17.9,0
2004/7/1,6:30:00,23.2,0,64.3,0,23.4,0,,0,17.9,0
2004/7/1,6:40:00,23.2,0,64.5,0,23.4,0,,0,17.9,0
2004/7/1,6:50:00,23.3,0,64.8,0,23.4,0,,0,18,0
2004/7/1,7:00:00,23.4,0,65.7,0,23.4,0,,0,18,0
2004/7/1,7:10:00,23.4,0,65.7,0,23.4,0,,0,18,0
2004/7/1,7:20:00,23.4,0,65,0,23.4,0,,0,17.8,0
2004/7/1,7:30:00,23.4,0,64.8,0,23.4,0,,0,17.8,0
2004/7/1,7:40:00,23.4,0,64.3,0,23.4,0,,0,17.1,0
2004/7/1,7:50:00,23.4,0,64.5,0,23.4,0,,0,17.1,0
2004/7/1,8:00:00,23.6,0,64.3,0,23.4,0,,0,17.1,0
2004/7/1,8:10:00,23.6,0,64.2,0,23.4,0,,0,17.2,0
2004/7/1,8:20:00,23.6,0,63.7,0,23.4,0,,0,17.2,0
2004/7/1,8:30:00,23.5,0,62.7,0,23.3,0,,0,17.3,0
2004/7/1,8:40:00,23.5,0,62.4,0,23.3,0,,0,17.3,0
2004/7/1,8:50:00,23.5,0,62.2,0,23.3,0,,0,17.4,0
2004/7/1,9:00:00,23.4,0,61.5,0,23.3,0,,0,17.4,0
2004/7/1,9:10:00,23.4,0,61.7,0,23.2,0,,0,17.4,0
2004/7/1,9:20:00,23.4,0,61.5,0,23.2,0,,0,17.5,0
2004/7/1,9:30:00,23.4,0,61.6,0,23.2,0,,0,17.5,0
2004/7/1,9:40:00,23.5,0,61.3,0,23.2,0,,0,17.6,0
2004/7/1,9:50:00,23.5,0,61.5,0,23.2,0,,0,16.7,0
2004/7/1,10:00:00,23.5,0,61.2,0,23.2,0,,0,16.7,0
2004/7/1,10:10:00,23.5,0,61.5,0,23.3,0,,0,16.8,0
2004/7/1,10:20:00,23.5,0,61.1,0,23.3,0,,0,16.8,0
2004/7/1,10:30:00,23.5,0,61.1,0,23.4,0,,0,16.9,0
2004/7/1,10:40:00,23.6,0,61.1,0,23.5,0,,0,16.9,0
2004/7/1,10:50:00,23.6,0,61,0,23.5,0,,0,17,0
2004/7/1,11:00:00,23.6,0,61,0,23.5,0,,0,17,0
2004/7/1,11:10:00,23.6,0,61,0,23.6,0,,0,17.1,0
2004/7/1,11:20:00,23.6,0,60.9,0,23.6,0,,0,17.1,0
2004/7/1,11:30:00,23.6,0,60.6,0,23.7,0,,0,17.2,0
2004/7/1,11:40:00,23.6,0,60.9,0,23.7,0,,0,17.4,0
2004/7/1,11:50:00,23.7,0,60.8,0,23.7,0,,0,17.4,0
2004/7/1,12:00:00,23.7,0,60.8,0,23.8,0,,0,17.5,0
2004/7/1,12:10:00,23.7,0,60.6,0,23.8,0,,0,17.5,0
2004/7/1,12:20:00,23.7,0,60.4,0,23.9,0,,0,17.6,0
2004/7/1,12:30:00,23.8,0,60.2,0,23.9,0,,0,17.6,0
2004/7/1,12:40:00,23.7,0,60.3,0,23.9,0,,0,17.7,0
2004/7/1,12:50:00,23.7,0,60.1,0,23.9,0,,0,17.7,0
2004/7/1,13:00:00,23.8,0,60.3,0,24,0,,0,17.8,0
2004/7/1,13:10:00,23.9,0,60.3,0,24.1,0,,0,17.8,0
2004/7/1,13:20:00,24,0,60,0,24.2,0,,0,17.8,0
2004/7/1,13:30:00,23.9,0,60,0,24.3,0,,0,17.9,0
2004/7/1,13:40:00,24,0,60,0,24.3,0,,0,17.9,0
2004/7/1,13:50:00,24,0,60,0,24.4,0,,0,18,0
2004/7/1,14:00:00,23.9,0,59.7,0,24.4,0,,0,18,0
2004/7/1,14:10:00,23.9,0,59.8,0,24.4,0,,0,18.1,0
2004/7/1,14:20:00,24,0,59.7,0,24.5,0,,0,18.1,0
2004/7/1,14:30:00,24.1,0,59.5,0,24.6,0,,0,18.1,0
2004/7/1,14:40:00,24,0,59.3,0,24.6,0,,0,18.2,0
2004/7/1,14:50:00,24.1,0,59.3,0,24.7,0,,0,18.2,0
2004/7/1,15:00:00,24.1,0,58.9,0,24.8,0,,0,18.3,0
2004/7/1,15:10:00,24.2,0,58.9,0,25,0,,0,18.3,0
2004/7/1,15:20:00,24.3,0,58.8,0,25.2,0,,0,18.3,0
2004/7/1,15:30:00,24.4,0,58.6,0,25.4,0,,0,18.2,0
2004/7/1,15:40:00,24.5,0,58.4,0,25.5,0,,0,18.3,0
2004/7/1,15:50:00,24.6,0,58.3,0,25.7,0,,0,18.3,0
2004/7/1,16:00:00,24.6,0,58.2,0,25.9,0,,0,18.3,0
2004/7/1,16:10:00,24.7,0,58,0,26.1,0,,0,18.4,0
2004/7/1,16:20:00,24.8,0,57.9,0,26.2,0,,0,18.4,0
2004/7/1,16:30:00,24.8,0,57.6,0,26.4,0,,0,18.4,0
2004/7/1,16:40:00,24.8,0,57.8,0,26.5,0,,0,18.5,0
2004/7/1,16:50:00,24.8,0,57.9,0,26.6,0,,0,18.1,0
2004/7/1,17:00:00,24.8,0,57.9,0,26.6,0,,0,18.1,0
2004/7/1,17:10:00,24.8,0,58,0,26.8,0,,0,18.1,0
2004/7/1,17:20:00,24.8,0,58.1,0,26.8,0,,0,18.2,0
2004/7/1,17:30:00,24.8,0,58.1,0,26.9,0,,0,18.2,0
2004/7/1,17:40:00,24.8,0,58.3,0,26.9,0,,0,17.8,0
2004/7/1,17:50:00,24.8,0,58.3,0,26.9,0,,0,17.9,0
2004/7/1,18:00:00,24.8,0,58.4,0,26.9,0,,0,17.9,0
2004/7/1,18:10:00,24.9,0,58.4,0,26.9,0,,0,18,0
2004/7/1,18:20:00,24.9,0,58.8,0,26.8,0,,0,18,0
2004/7/1,18:30:00,24.8,0,58.3,0,26.8,0,,0,18,0
2004/7/1,18:40:00,24.7,0,57.8,0,26.7,0,,0,17.6,0
2004/7/1,18:50:00,24.6,0,57.1,0,26.6,0,,0,17.7,0
2004/7/1,19:00:00,24.5,0,57,0,26.6,0,,0,17.3,0
2004/7/1,19:10:00,24.5,0,57.4,0,26.4,0,,0,17.3,0
2004/7/1,19:20:00,24.4,0,57.8,0,26.3,0,,0,17.4,0
2004/7/1,19:30:00,24.4,0,58.3,0,26.2,0,,0,17.4,0
2004/7/1,19:40:00,24.5,0,59.5,0,26.1,0,,0,17.5,0
2004/7/1,19:50:00,24.5,0,60,0,26.1,0,,0,17.5,0
2004/7/1,20:00:00,24.5,0,59.3,0,26,0,,0,17.5,0
2004/7/1,20:10:00,24.5,0,59.5,0,25.9,0,,0,17.6,0
2004/7/1,20:20:00,24.5,0,59.6,0,25.8,0,,0,17.6,0
2004/7/1,20:30:00,24.5,0,59.7,0,25.7,0,,0,17.7,0
2004/7/1,20:40:00,24.5,0,59.6,0,25.7,0,,0,17.7,0
2004/7/1,20:50:00,24.4,0,59.5,0,25.6,0,,0,17.8,0
2004/7/1,21:00:00,24.4,0,59.3,0,25.5,0,,0,15.7,0
2004/7/1,21:10:00,24.4,0,59.3,0,25.4,0,,0,15.7,0
2004/7/1,21:20:00,24.4,0,59.3,0,25.4,0,,0,15.8,0
2004/7/1,21:30:00,24.4,0,59.2,0,25.3,0,,0,15.8,0
2004/7/1,21:40:00,24.3,0,59,0,25.3,0,,0,15.9,0
2004/7/1,21:50:00,24.3,0,58.8,0,25.2,0,,0,15.9,0
2004/7/1,22:00:00,24.3,0,58.7,0,25.1,0,,0,15.6,0
2004/7/1,22:10:00,24.2,0,58.6,0,25.1,0,,0,15.6,0
2004/7/1,22:20:00,24.2,0,58.7,0,25.1,0,,0,15.7,0
2004/7/1,22:30:00,24.1,0,58.1,0,25.1,0,,0,15.7,0
2004/7/1,22:40:00,24.1,0,58.2,0,25.1,0,,0,16.2,0
2004/7/1,22:50:00,24.1,0,58.4,0,25.2,0,,0,16.3,0
2004/7/1,23:00:00,24.1,0,58.4,0,25.2,0,,0,16.3,0
2004/7/1,23:10:00,24.1,0,58.3,0,25.2,0,,0,16.8,0
2004/7/1,23:20:00,24,0,58.6,0,25.2,0,,0,16.8,0
2004/7/1,23:30:00,24,0,58.5,0,25.2,0,,0,16.9,0
2004/7/1,23:40:00,24,0,58.5,0,25.1,0,,0,16.9,0
2004/7/1,23:50:00,23.9,0,58.5,0,25.1,0,,0,17,0
2004/7/2,0:00:00,23.9,0,58.6,0,25.1,0,,0,17,0
2004/7/2,0:10:00,23.8,0,58.6,0,25.1,0,,0,17,0
2004/7/2,0:20:00,23.8,0,58.5,0,25,0,,0,17.1,0
2004/7/2,0:30:00,23.8,0,58.6,0,25,0,,0,17.1,0
2004/7/2,0:40:00,23.7,0,58.6,0,25,0,,0,17.2,0
2004/7/2,0:50:00,23.7,0,58.6,0,25,0,,0,17.2,0
2004/7/2,1:00:00,23.6,0,58.6,0,24.9,0,,0,17.2,0
2004/7/2,1:10:00,23.6,0,58.6,0,24.9,0,,0,17.3,0
2004/7/2,1:20:00,23.6,0,58.6,0,24.9,0,,0,17.3,0
2004/7/2,1:30:00,23.5,0,58.6,0,24.8,0,,0,17.4,0
2004/7/2,1:40:00,23.5,0,58.6,0,24.8,0,,0,17.4,0
2004/7/2,1:50:00,23.4,0,58.5,0,24.8,0,,0,17.4,0
2004/7/2,2:00:00,23.4,0,58.5,0,24.8,0,,0,17.5,0
2004/7/2,2:10:00,23.4,0,58.5,0,24.7,0,,0,17.5,0
2004/7/2,2:20:00,23.3,0,58.4,0,24.7,0,,0,17.6,0
2004/7/2,2:30:00,23.3,0,58.4,0,24.7,0,,0,17.6,0
2004/7/2,2:40:00,23.2,0,58.4,0,24.6,0,,0,17.6,0
2004/7/2,2:50:00,23.2,0,58.4,0,24.6,0,,0,17.7,0
2004/7/2,3:00:00,23.2,0,58.3,0,24.6,0,,0,17.7,0
2004/7/2,3:10:00,23.1,0,58.3,0,24.5,0,,0,17.7,0
2004/7/2,3:20:00,23.1,0,58.2,0,24.5,0,,0,17.8,0
2004/7/2,3:30:00,23,0,58.1,0,24.4,0,,0,17.8,0
2004/7/2,3:40:00,23,0,58.3,0,24.4,0,,0,17.8,0
2004/7/2,3:50:00,23,0,58.2,0,24.4,0,,0,17.9,0
2004/7/2,4:00:00,22.9,0,58.2,0,24.3,0,,0,17.9,0
2004/7/2,4:10:00,22.9,0,58.2,0,24.3,0,,0,17.9,0
2004/7/2,4:20:00,22.9,0,58.2,0,24.3,0,,0,18,0
2004/7/2,4:30:00,22.8,0,58.2,0,24.2,0,,0,18,0
2004/7/2,4:40:00,22.8,0,58.2,0,24.2,0,,0,18,0
2004/7/2,4:50:00,22.8,0,58.2,0,24.1,0,,0,18.1,0
2004/7/2,5:00:00,22.7,0,58.2,0,24.1,0,,0,18.1,0
2004/7/2,5:10:00,22.7,0,58.2,0,24.1,0,,0,18.1,0
2004/7/2,5:20:00,22.7,0,58.2,0,24,0,,0,18.1,0
2004/7/2,5:30:00,22.7,0,58.2,0,24,0,,0,18.2,0
2004/7/2,5:40:00,22.7,0,58.2,0,23.9,0,,0,18.2,0
2004/7/2,5:50:00,22.6,0,58.2,0,23.9,0,,0,18.2,0
2004/7/2,6:00:00,22.6,0,58.1,0,23.9,0,,0,18.3,0
2004/7/2,6:10:00,22.6,0,58.2,0,23.9,0,,0,18.2,0
2004/7/2,6:20:00,22.6,0,58.4,0,23.9,0,,0,18.2,0
2004/7/2,6:30:00,22.6,0,58.5,0,23.9,0,,0,18.2,0
2004/7/2,6:40:00,22.7,0,58.6,0,23.9,0,,0,18.2,0
2004/7/2,6:50:00,22.7,0,58.7,0,23.9,0,,0,18.3,0
2004/7/2,7:00:00,22.7,0,58.8,0,23.9,0,,0,18.3,0
2004/7/2,7:10:00,22.7,0,58.8,0,23.9,0,,0,18.3,0
2004/7/2,7:20:00,22.7,0,58.9,0,23.9,0,,0,18.3,0
2004/7/2,7:30:00,22.7,0,59.1,0,23.9,0,,0,18.4,0
2004/7/2,7:40:00,22.8,0,59.7,0,23.9,0,,0,18.4,0
2004/7/2,7:50:00,22.9,0,60.6,0,24,0,,0,18.4,0
2004/7/2,8:00:00,23,0,61.3,0,24.1,0,,0,18.5,0
2004/7/2,8:10:00,23,0,61,0,24.1,0,,0,18.5,0
2004/7/2,8:20:00,23,0,60.3,0,24,0,,0,17.6,0
2004/7/2,8:30:00,23,0,61,0,24,0,,0,17.6,0
2004/7/2,8:40:00,23.1,0,60.5,0,24,0,,0,17.7,0
2004/7/2,8:50:00,23.1,0,60.2,0,24.1,0,,0,17.7,0
2004/7/2,9:00:00,23.2,0,61,0,24.1,0,,0,17.7,0
2004/7/2,9:10:00,23.2,0,60.5,0,24.2,0,,0,17.8,0
2004/7/2,9:20:00,23.3,0,60.8,0,24.2,0,,0,17.8,0
2004/7/2,9:30:00,23.3,0,60.6,0,24.3,0,,0,17.9,0
2004/7/2,9:40:00,23.3,0,60.6,0,24.4,0,,0,18,0
2004/7/2,9:50:00,23.4,0,60.4,0,24.4,0,,0,17.5,0
2004/7/2,10:00:00,23.4,0,60.8,0,24.4,0,,0,16.7,0
2004/7/2,10:10:00,23.4,0,60.6,0,24.4,0,,0,15.6,0
2004/7/2,10:20:00,23.4,0,60.4,0,24.4,0,,0,15.7,0
2004/7/2,10:30:00,23.4,0,60.1,0,24.4,0,,0,15.7,0
2004/7/2,10:40:00,23.5,0,59.1,0,24.3,0,,0,15.8,0
2004/7/2,10:50:00,23.5,0,59.4,0,24.4,0,,0,15.9,0
2004/7/2,11:00:00,23.5,0,59.2,0,24.4,0,,0,15.9,0
2004/7/2,11:10:00,23.6,0,58.7,0,24.4,0,,0,16,0
2004/7/2,11:20:00,23.6,0,58.3,0,24.5,0,,0,16.1,0
2004/7/2,11:30:00,23.6,0,58.2,0,24.5,0,,0,16.1,0
2004/7/2,11:40:00,23.7,0,58,0,24.5,0,,0,16.2,0
2004/7/2,11:50:00,23.7,0,57.6,0,24.6,0,,0,16.3,0
2004/7/2,12:00:00,23.7,0,57.7,0,24.6,0,,0,16.3,0
2004/7/2,12:10:00,23.8,0,58,0,24.7,0,,0,16.4,0
2004/7/2,12:20:00,23.8,0,57.2,0,24.8,0,,0,16.4,0
2004/7/2,12:30:00,23.9,0,57.3,0,24.9,0,,0,16.5,0
2004/7/2,12:40:00,24,0,56.9,0,25,0,,0,16.6,0
2004/7/2,12:50:00,24.1,0,57.3,0,25.1,0,,0,16.6,0
2004/7/2,13:00:00,24.2,0,57,0,25.3,0,,0,16.7,0
2004/7/2,13:10:00,24.3,0,56.7,0,25.4,0,,0,16.8,0
2004/7/2,13:20:00,24.4,0,56.3,0,25.6,0,,0,16.8,0
2004/7/2,13:30:00,24.5,0,56.2,0,25.7,0,,0,16.9,0
2004/7/2,13:40:00,24.6,0,56.1,0,25.9,0,,0,16.9,0
2004/7/2,13:50:00,24.7,0,55.9,0,26.1,0,,0,17,0
2004/7/2,14:00:00,24.8,0,55.5,0,26.2,0,,0,17.1,0
2004/7/2,14:10:00,24.9,0,55.2,0,26.4,0,,0,17.1,0
2004/7/2,14:20:00,25,0,54.9,0,26.6,0,,0,17.2,0
2004/7/2,14:30:00,25.1,0,54.6,0,26.8,0,,0,17.3,0
2004/7/2,14:40:00,25.2,0,54.5,0,26.9,0,,0,17.3,0
2004/7/2,14:50:00,25.3,0,54.1,0,27.2,0,,0,17.4,0
2004/7/2,15:00:00,25.3,0,53.9,0,27.3,0,,0,17.4,0
2004/7/2,15:10:00,25.3,0,54,0,27.4,0,,0,17.5,0
2004/7/2,15:20:00,25.3,0,53.5,0,27.4,0,,0,17.5,0
2004/7/2,15:30:00,25.4,0,53.6,0,27.5,0,,0,17.6,0
2004/7/2,15:40:00,25.4,0,53.5,0,27.5,0,,0,17.7,0
2004/7/2,15:50:00,25.3,0,54,0,27.5,0,,0,17.7,0
2004/7/2,16:00:00,25.3,0,54.1,0,27.5,0,,0,17.8,0
2004/7/2,16:10:00,25.3,0,55,0,27.5,0,,0,17.8,0
2004/7/2,16:20:00,25.2,0,54.3,0,27.4,0,,0,17.9,0
2004/7/2,16:30:00,25.2,0,54,0,27.4,0,,0,17.9,0
2004/7/2,16:40:00,25.2,0,54.3,0,27.3,0,,0,18,0
2004/7/2,16:50:00,25.2,0,54.7,0,27.3,0,,0,18.1,0
2004/7/2,17:00:00,25.2,0,54.9,0,27.3,0,,0,18.1,0
2004/7/2,17:10:00,25.1,0,55.1,0,27.2,0,,0,18.2,0
2004/7/2,17:20:00,25.1,0,55.2,0,27.2,0,,0,18.2,0
2004/7/2,17:30:00,25.1,0,55.2,0,27.1,0,,0,18.3,0
2004/7/2,17:40:00,25.1,0,55.6,0,27.1,0,,0,18.3,0
2004/7/2,17:50:00,25,0,55.4,0,27,0,,0,18.4,0
2004/7/2,18:00:00,25,0,55.1,0,26.9,0,,0,18.4,0
2004/7/2,18:10:00,24.9,0,55.4,0,26.9,0,,0,18.5,0
2004/7/2,18:20:00,24.9,0,55.6,0,26.8,0,,0,18.5,0
2004/7/2,18:30:00,24.9,0,55,0,26.7,0,,0,18.6,0
2004/7/2,18:40:00,24.8,0,55.6,0,26.6,0,,0,18.4,0
2004/7/2,18:50:00,24.8,0,55.7,0,26.6,0,,0,18.4,0
2004/7/2,19:00:00,24.8,0,55.7,0,26.5,0,,0,18.5,0
2004/7/2,19:10:00,24.9,0,56.2,0,26.4,0,,0,18.5,0
2004/7/2,19:20:00,24.9,0,56.2,0,26.4,0,,0,18.5,0
2004/7/2,19:30:00,24.9,0,56.3,0,26.3,0,,0,18.6,0
2004/7/2,19:40:00,24.9,0,56.2,0,26.3,0,,0,17.9,0
2004/7/2,19:50:00,24.9,0,56,0,26.2,0,,0,18,0
2004/7/2,20:00:00,24.9,0,56.5,0,26.2,0,,0,18,0
2004/7/2,20:10:00,24.9,0,56.6,0,26.1,0,,0,18.1,0
2004/7/2,20:20:00,24.9,0,56.6,0,26.1,0,,0,18.1,0
2004/7/2,20:30:00,24.9,0,56.7,0,26,0,,0,18.1,0
2004/7/2,20:40:00,24.9,0,56.6,0,26,0,,0,18.2,0
2004/7/2,20:50:00,24.9,0,56.8,0,25.9,0,,0,18.2,0
2004/7/2,21:00:00,24.8,0,56.8,0,25.9,0,,0,18.3,0
2004/7/2,21:10:00,24.9,0,56.8,0,25.8,0,,0,18.3,0
2004/7/2,21:20:00,24.9,0,56.9,0,25.8,0,,0,18.4,0
2004/7/2,21:30:00,24.8,0,57.1,0,25.7,0,,0,18.4,0
2004/7/2,21:40:00,24.9,0,57.6,0,25.7,0,,0,17.6,0
2004/7/2,21:50:00,24.9,0,57.8,0,25.6,0,,0,17.7,0
2004/7/2,22:00:00,24.9,0,57.9,0,25.6,0,,0,17.7,0
2004/7/2,22:10:00,24.9,0,57.9,0,25.6,0,,0,17.7,0
2004/7/2,22:20:00,24.9,0,57.8,0,25.5,0,,0,17.8,0
2004/7/2,22:30:00,24.9,0,57.9,0,25.5,0,,0,17.8,0
2004/7/2,22:40:00,24.9,0,57.9,0,25.5,0,,0,18.1,0
2004/7/2,22:50:00,25,0,58.1,0,25.4,0,,0,17.6,0
2004/7/2,23:00:00,25,0,57.9,0,25.4,0,,0,17.6,0
2004/7/2,23:10:00,25,0,57.9,0,25.4,0,,0,17.3,0
2004/7/2,23:20:00,25,0,58,0,25.4,0,,0,17.3,0
2004/7/2,23:30:00,24.9,0,58.1,0,25.4,0,,0,17.3,0
2004/7/2,23:40:00,24.9,0,58.2,0,25.4,0,,0,17.4,0
2004/7/2,23:50:00,24.8,0,58.2,0,25.5,0,,0,17.4,0
2004/7/3,0:00:00,24.8,0,58.3,0,25.5,0,,0,17.5,0
2004/7/3,0:10:00,24.8,0,58.4,0,25.6,0,,0,17.5,0
2004/7/3,0:20:00,24.7,0,58.4,0,25.6,0,,0,17.6,0
2004/7/3,0:30:00,24.7,0,58.5,0,25.6,0,,0,17.6,0
2004/7/3,0:40:00,24.7,0,58.5,0,25.5,0,,0,17.7,0
2004/7/3,0:50:00,24.7,0,58.6,0,25.5,0,,0,17.8,0
2004/7/3,1:00:00,24.6,0,58.6,0,25.5,0,,0,17.8,0
2004/7/3,1:10:00,24.6,0,58.7,0,25.4,0,,0,17.9,0
2004/7/3,1:20:00,24.6,0,58.7,0,25.4,0,,0,17.9,0
2004/7/3,1:30:00,24.5,0,58.7,0,25.4,0,,0,17.9,0
2004/7/3,1:40:00,24.5,0,58.7,0,25.3,0,,0,18,0
2004/7/3,1:50:00,24.5,0,58.8,0,25.3,0,,0,18,0
2004/7/3,2:00:00,24.5,0,58.8,0,25.3,0,,0,18.1,0
2004/7/3,2:10:00,24.4,0,58.8,0,25.4,0,,0,18.1,0
2004/7/3,2:20:00,24.4,0,58.8,0,25.4,0,,0,18.1,0
2004/7/3,2:30:00,24.4,0,58.8,0,25.4,0,,0,18.2,0
2004/7/3,2:40:00,24.3,0,58.8,0,25.4,0,,0,18.2,0
2004/7/3,2:50:00,24.3,0,58.8,0,25.3,0,,0,18.3,0
2004/7/3,3:00:00,24.3,0,58.8,0,25.3,0,,0,18.3,0
2004/7/3,3:10:00,24.3,0,58.7,0,25.2,0,,0,18.3,0
2004/7/3,3:20:00,24.2,0,58.6,0,25.2,0,,0,18.4,0
2004/7/3,3:30:00,24.2,0,58.6,0,25.2,0,,0,18.4,0
2004/7/3,3:40:00,24.2,0,58.6,0,25.1,0,,0,18.5,0
2004/7/3,3:50:00,24.1,0,58.6,0,25.1,0,,0,18.5,0
2004/7/3,4:00:00,24.1,0,58.5,0,25,0,,0,18.5,0
2004/7/3,4:10:00,24.1,0,58.5,0,25,0,,0,18.6,0
2004/7/3,4:20:00,24.1,0,58.6,0,25,0,,0,18.6,0
2004/7/3,4:30:00,24.1,0,58.6,0,24.9,0,,0,18.7,0
2004/7/3,4:40:00,24,0,58.6,0,24.9,0,,0,18.7,0
2004/7/3,4:50:00,24,0,58.5,0,24.9,0,,0,18.7,0
2004/7/3,5:00:00,24,0,58.6,0,24.9,0,,0,18.8,0
2004/7/3,5:10:00,24,0,58.6,0,24.8,0,,0,18.8,0
2004/7/3,5:20:00,24,0,58.6,0,24.8,0,,0,18.8,0
2004/7/3,5:30:00,24,0,58.7,0,24.8,0,,0,18.9,0
2004/7/3,5:40:00,23.9,0,58.6,0,24.8,0,,0,18.9,0
2004/7/3,5:50:00,23.9,0,58.6,0,24.8,0,,0,19,0
2004/7/3,6:00:00,23.9,0,58.6,0,24.7,0,,0,19,0
2004/7/3,6:10:00,23.9,0,58.6,0,24.7,0,,0,19,0
2004/7/3,6:20:00,23.9,0,58.7,0,24.7,0,,0,19,0
2004/7/3,6:30:00,23.9,0,58.7,0,24.7,0,,0,19.1,0
2004/7/3,6:40:00,23.9,0,58.8,0,24.7,0,,0,18.3,0
2004/7/3,6:50:00,23.9,0,59.3,0,24.7,0,,0,18.3,0
2004/7/3,7:00:00,23.9,0,59.5,0,24.7,0,,0,17.3,0
2004/7/3,7:10:00,23.9,0,59.4,0,24.7,0,,0,17.4,0
2004/7/3,7:20:00,24,0,59.6,0,24.8,0,,0,17.4,0
2004/7/3,7:30:00,24,0,59.6,0,24.8,0,,0,17.5,0
2004/7/3,7:40:00,24,0,59.6,0,24.9,0,,0,17.5,0
2004/7/3,7:50:00,24,0,59.8,0,25,0,,0,17.6,0
2004/7/3,8:00:00,24,0,59.8,0,25,0,,0,17.6,0
2004/7/3,8:10:00,24,0,59.6,0,25.1,0,,0,17.7,0
2004/7/3,8:20:00,23.9,0,58.9,0,25.2,0,,0,17.7,0
2004/7/3,8:30:00,23.9,0,58.7,0,25.2,0,,0,15.3,0
2004/7/3,8:40:00,24,0,59,0,25.3,0,,0,15.4,0
2004/7/3,8:50:00,24,0,58.9,0,25.3,0,,0,15.5,0
2004/7/3,9:00:00,24.1,0,58.5,0,25.3,0,,0,15.5,0
2004/7/3,9:10:00,24.1,0,57.8,0,25.3,0,,0,15.6,0
2004/7/3,9:20:00,24.1,0,56.9,0,25.3,0,,0,15.7,0
2004/7/3,9:30:00,24,0,53.7,0,25.3,0,,0,15.7,0
2004/7/3,9:40:00,23.8,0,53.9,0,25.2,0,,0,15.8,0
2004/7/3,9:50:00,23.9,0,55,0,25.2,0,,0,15.9,0
2004/7/3,10:00:00,24.1,0,55.7,0,25.2,0,,0,16,0
2004/7/3,10:10:00,24.2,0,55.5,0,25.2,0,,0,16,0
2004/7/3,10:20:00,24.4,0,55.8,0,25.2,0,,0,16.1,0
2004/7/3,10:30:00,24.4,0,55.7,0,25.3,0,,0,16.2,0
2004/7/3,10:40:00,24.5,0,55.7,0,25.3,0,,0,16.2,0
2004/7/3,10:50:00,24.5,0,55.9,0,25.4,0,,0,16.3,0
2004/7/3,11:00:00,24.6,0,56.5,0,25.4,0,,0,16.4,0
2004/7/3,11:10:00,24.6,0,56,0,25.5,0,,0,16.4,0
2004/7/3,11:20:00,24.6,0,56.3,0,25.5,0,,0,16.5,0
2004/7/3,11:30:00,24.7,0,56,0,25.6,0,,0,16.6,0
2004/7/3,11:40:00,24.8,0,55.2,0,25.7,0,,0,16.6,0
2004/7/3,11:50:00,24.9,0,55.9,0,25.8,0,,0,16.7,0
2004/7/3,12:00:00,24.9,0,54.2,0,25.8,0,,0,16.8,0
2004/7/3,12:10:00,25,0,54,0,26,0,,0,15.7,0
2004/7/3,12:20:00,25.1,0,53.9,0,26.2,0,,0,15.8,0
2004/7/3,12:30:00,25.2,0,52.9,0,26.3,0,,0,15.9,0
2004/7/3,12:40:00,25.2,0,53.4,0,26.6,0,,0,15.9,0
2004/7/3,12:50:00,25.3,0,53.1,0,26.7,0,,0,16,0
2004/7/3,13:00:00,25.4,0,52.7,0,26.9,0,,0,16.1,0
2004/7/3,13:10:00,25.6,0,53.1,0,27.1,0,,0,16.1,0
2004/7/3,13:20:00,25.7,0,52.6,0,27.3,0,,0,16.2,0
2004/7/3,13:30:00,25.9,0,53.2,0,27.5,0,,0,16.3,0
2004/7/3,13:40:00,26,0,52.8,0,27.8,0,,0,16.3,0
2004/7/3,13:50:00,26,0,51.9,0,27.9,0,,0,16.4,0
2004/7/3,14:00:00,26.1,0,51.1,0,28,0,,0,17.1,0
2004/7/3,14:10:00,26.2,0,49.8,0,28.1,0,,0,17.1,0
2004/7/3,14:20:00,26.4,0,49.2,0,28.3,0,,0,17.1,0
2004/7/3,14:30:00,26.4,0,48.8,0,28.5,0,,0,17.2,0
2004/7/3,14:40:00,26.5,0,48.1,0,28.6,0,,0,17.2,0
2004/7/3,14:50:00,26.6,0,47.8,0,28.7,0,,0,17.4,0
2004/7/3,15:00:00,26.6,0,48.5,0,28.8,0,,0,17.4,0
2004/7/3,15:10:00,26.8,0,48.6,0,29,0,,0,17.5,0
2004/7/3,15:20:00,26.8,0,47.9,0,29.1,0,,0,17.5,0
2004/7/3,15:30:00,26.8,0,47.8,0,29.2,0,,0,17.6,0
2004/7/3,15:40:00,26.9,0,47.6,0,29.2,0,,0,17.6,0
2004/7/3,15:50:00,27,0,48.3,0,29.3,0,,0,17.7,0
2004/7/3,16:00:00,27.1,0,49.2,0,29.3,0,,0,17.7,0
2004/7/3,16:10:00,27.1,0,49.6,0,29.4,0,,0,17.8,0
2004/7/3,16:20:00,27.1,0,49.4,0,29.4,0,,0,17.8,0
2004/7/3,16:30:00,27,0,48.5,0,29.4,0,,0,17.9,0
2004/7/3,16:40:00,26.9,0,48.9,0,29.3,0,,0,18,0
2004/7/3,16:50:00,26.8,0,48.5,0,29.2,0,,0,18,0
2004/7/3,17:00:00,26.8,0,48.6,0,29.1,0,,0,18.1,0
2004/7/3,17:10:00,26.8,0,48.6,0,29.1,0,,0,18.1,0
2004/7/3,17:20:00,26.7,0,48.4,0,29,0,,0,18.2,0
2004/7/3,17:30:00,26.6,0,48.3,0,28.9,0,,0,18.2,0
2004/7/3,17:40:00,26.6,0,47.5,0,28.9,0,,0,18.3,0
2004/7/3,17:50:00,26.5,0,48,0,28.8,0,,0,18.3,0
2004/7/3,18:00:00,26.5,0,48.4,0,28.8,0,,0,18.4,0
2004/7/3,18:10:00,26.5,0,48.5,0,28.7,0,,0,18.5,0
2004/7/3,18:20:00,26.5,0,48.9,0,28.7,0,,0,18.5,0
2004/7/3,18:30:00,26.4,0,49.4,0,28.6,0,,0,18.6,0
2004/7/3,18:40:00,26.4,0,51,0,28.6,0,,0,18.6,0
2004/7/3,18:50:00,26.4,0,52.4,0,28.6,0,,0,18.7,0
2004/7/3,19:00:00,26.5,0,52.3,0,28.6,0,,0,18.7,0
2004/7/3,19:10:00,26.4,0,52.6,0,28.6,0,,0,18.8,0
2004/7/3,19:20:00,26.4,0,52.9,0,28.5,0,,0,18,0
2004/7/3,19:30:00,26.3,0,53.1,0,28.5,0,,0,18.1,0
2004/7/3,19:40:00,26.3,0,53.2,0,28.5,0,,0,18.1,0
2004/7/3,19:50:00,26.3,0,53.8,0,28.4,0,,0,18.2,0
2004/7/3,20:00:00,26.3,0,54.5,0,28.4,0,,0,18.3,0
2004/7/3,20:10:00,26.4,0,54.3,0,28.3,0,,0,18.3,0
2004/7/3,20:20:00,26.4,0,54.2,0,28.3,0,,0,18.3,0
2004/7/3,20:30:00,26.3,0,54.1,0,28.2,0,,0,18.4,0
2004/7/3,20:40:00,26.3,0,54.2,0,28.2,0,,0,17.8,0
2004/7/3,20:50:00,26.4,0,54.4,0,28.1,0,,0,17.8,0
2004/7/3,21:00:00,26.4,0,54.4,0,28.1,0,,0,17.9,0
2004/7/3,21:10:00,26.4,0,54.4,0,28,0,,0,17.9,0
2004/7/3,21:20:00,26.4,0,54.5,0,28,0,,0,18,0
2004/7/3,21:30:00,26.4,0,54.4,0,28,0,,0,18,0
2004/7/3,21:40:00,26.4,0,54.5,0,27.9,0,,0,17.7,0
2004/7/3,21:50:00,26.3,0,54.8,0,27.9,0,,0,17.8,0
2004/7/3,22:00:00,26.2,0,54.6,0,27.8,0,,0,17.8,0
2004/7/3,22:10:00,26.1,0,54.4,0,27.8,0,,0,17.8,0
2004/7/3,22:20:00,26.1,0,54.3,0,27.7,0,,0,17.9,0
2004/7/3,22:30:00,26,0,54.2,0,27.7,0,,0,17.9,0
2004/7/3,22:40:00,25.9,0,54.3,0,27.6,0,,0,18,0
2004/7/3,22:50:00,25.9,0,54.3,0,27.6,0,,0,18,0
2004/7/3,23:00:00,25.8,0,54.1,0,27.5,0,,0,17.9,0
2004/7/3,23:10:00,25.7,0,54,0,27.5,0,,0,17.9,0
2004/7/3,23:20:00,25.6,0,54.1,0,27.4,0,,0,17.9,0
2004/7/3,23:30:00,25.6,0,54,0,27.4,0,,0,18,0
2004/7/3,23:40:00,25.5,0,54.2,0,27.3,0,,0,18,0
2004/7/3,23:50:00,25.4,0,54.2,0,27.2,0,,0,18,0
2004/7/4,0:00:00,25.4,0,54.1,0,27.2,0,,0,18.1,0
2004/7/4,0:10:00,25.3,0,54,0,27.1,0,,0,18.1,0
2004/7/4,0:20:00,25.2,0,54,0,27.1,0,,0,18.1,0
2004/7/4,0:30:00,25.1,0,53.8,0,27,0,,0,18.2,0
2004/7/4,0:40:00,25.1,0,53.6,0,26.9,0,,0,18.2,0
2004/7/4,0:50:00,25,0,53.5,0,26.9,0,,0,18.2,0
2004/7/4,1:00:00,24.9,0,53.4,0,26.8,0,,0,18.3,0
2004/7/4,1:10:00,24.9,0,53.4,0,26.7,0,,0,18.3,0
2004/7/4,1:20:00,24.8,0,53.4,0,26.7,0,,0,18.3,0
2004/7/4,1:30:00,24.8,0,53.4,0,26.6,0,,0,18.3,0
2004/7/4,1:40:00,24.7,0,53.5,0,26.5,0,,0,18.4,0
2004/7/4,1:50:00,24.7,0,53.5,0,26.5,0,,0,18.4,0
2004/7/4,2:00:00,24.6,0,53.2,0,26.4,0,,0,18.4,0
2004/7/4,2:10:00,24.6,0,53.1,0,26.4,0,,0,18.4,0
2004/7/4,2:20:00,24.5,0,53.1,0,26.3,0,,0,18.4,0
2004/7/4,2:30:00,24.4,0,53.2,0,26.2,0,,0,18.5,0
2004/7/4,2:40:00,24.4,0,53,0,26.1,0,,0,18.5,0
2004/7/4,2:50:00,24.3,0,52.9,0,26.1,0,,0,18.5,0
2004/7/4,3:00:00,24.3,0,52.9,0,26,0,,0,18.5,0
2004/7/4,3:10:00,24.2,0,52.8,0,25.9,0,,0,18.5,0
2004/7/4,3:20:00,24.2,0,52.8,0,25.9,0,,0,18.6,0
2004/7/4,3:30:00,24.1,0,52.7,0,25.8,0,,0,18.6,0
2004/7/4,3:40:00,24.1,0,52.7,0,25.7,0,,0,18.6,0
2004/7/4,3:50:00,24,0,52.7,0,25.7,0,,0,18.6,0
2004/7/4,4:00:00,24,0,52.6,0,25.6,0,,0,18.7,0
2004/7/4,4:10:00,23.9,0,52.6,0,25.5,0,,0,18.7,0
2004/7/4,4:20:00,23.9,0,52.6,0,25.5,0,,0,18.7,0
2004/7/4,4:30:00,23.8,0,52.7,0,25.4,0,,0,18.7,0
2004/7/4,4:40:00,23.8,0,52.6,0,25.4,0,,0,18.7,0
2004/7/4,4:50:00,23.7,0,52.6,0,25.3,0,,0,18.7,0
2004/7/4,5:00:00,23.7,0,52.6,0,25.2,0,,0,18.7,0
2004/7/4,5:10:00,23.6,0,52.7,0,25.2,0,,0,18.8,0
2004/7/4,5:20:00,23.6,0,52.7,0,25.1,0,,0,18.8,0
2004/7/4,5:30:00,23.6,0,53.2,0,25.1,0,,0,18.8,0
2004/7/4,5:40:00,23.5,0,53,0,25.1,0,,0,18.8,0
2004/7/4,5:50:00,23.5,0,53.1,0,25,0,,0,18.8,0
2004/7/4,6:00:00,23.5,0,53.5,0,25,0,,0,18.8,0
2004/7/4,6:10:00,23.5,0,53.6,0,25,0,,0,18.8,0
2004/7/4,6:20:00,23.5,0,53.8,0,24.9,0,,0,18.9,0
2004/7/4,6:30:00,23.5,0,53.9,0,24.9,0,,0,18.9,0
2004/7/4,6:40:00,23.4,0,54,0,24.9,0,,0,18.9,0
2004/7/4,6:50:00,23.4,0,54.1,0,24.9,0,,0,18.9,0
2004/7/4,7:00:00,23.4,0,54.2,0,24.8,0,,0,18.9,0
2004/7/4,7:10:00,23.4,0,54.3,0,24.8,0,,0,18.9,0
2004/7/4,7:20:00,23.5,0,54.6,0,24.8,0,,0,19,0
2004/7/4,7:30:00,23.5,0,54.8,0,24.8,0,,0,19,0
2004/7/4,7:40:00,23.5,0,55,0,24.8,0,,0,19,0
2004/7/4,7:50:00,23.5,0,55.1,0,24.8,0,,0,19,0
2004/7/4,8:00:00,23.5,0,55.2,0,24.8,0,,0,19,0
2004/7/4,8:10:00,23.5,0,55.4,0,24.8,0,,0,18.2,0
2004/7/4,8:20:00,23.5,0,56.1,0,24.7,0,,0,18.2,0
2004/7/4,8:30:00,23.5,0,56.5,0,24.7,0,,0,18.2,0
2004/7/4,8:40:00,23.5,0,56.8,0,24.6,0,,0,18.3,0
2004/7/4,8:50:00,23.5,0,57.3,0,24.6,0,,0,18.3,0
2004/7/4,9:00:00,23.5,0,58.1,0,24.5,0,,0,18.3,0
2004/7/4,9:10:00,23.6,0,57.9,0,24.4,0,,0,18.4,0
2004/7/4,9:20:00,23.5,0,58.8,0,24.4,0,,0,18.4,0